Vertical_Velocity
1 2 -0 -0 1 0 1 1 0 -0 -1 1 -0 1 1 -0 -1 -2 -1 -2 -1 -2 -2 -3 -2 -1 -2 -2 -0 1 -3 -2 -1 -3 1 -2 -4 7 4 6 -8 -1 3 -1 2
0 2 1 -0 -1 -1 -0 -0 0 -0 -0 -1 0 2 0 1 -0 -2 -3 -2 -2 -1 0 -2 -4 -3 -3 -2 -1 -1 0 -1 -1 0 -2 -7 0 11 -5 -3 -0 -1 -2 0 6
-1 0 2 2 0 1 1 -1 -2 -2 -2 -2 -3 0 -1 -1 -3 -1 0 1 -1 -2 -2 -1 -1 -2 -2 -0 -2 -1 -0 1 -1 2 -3 -2 15 -3 1 3 -0 1 2 3 2
-2 -0 1 0 1 -1 -3 -2 -2 -1 -1 -2 -2 -1 -1 -2 -1 -0 0 0 -1 -2 -2 -2 -2 -1 -1 -2 -2 2 0 3 -2 2 -2 -4 7 2 4 -3 -2 3 2 1 3
-1 -1 -1 -0 1 1 1 -0 -0 -0 0 -1 0 0 0 -1 -1 -0 -1 -2 -2 -4 -4 -5 -5 -2 -2 -3 -1 1 6 1 1 6 0 10 10 -1 -4 -0 -0 0 1 -1 0
0 -1 -0 -2 -1 -1 -0 0 -0 0 1 -0 1 0 -1 -1 -3 -1 -3 -4 -4 -1 -4 -4 -4 -3 -2 0 -1 2 3 0 -1 4 5 12 -1 5 -2 1 2 1 1 -1 -1
1 -1 -0 -0 -1 -1 -1 -0 1 -0 1 1 -0 -1 -2 -2 -2 0 -1 -3 -2 -0 -2 1 -2 -3 -1 -1 -3 2 3 -2 -2 -1 5 8 -5 -5 -2 0 1 0 -1 1 2
1 -1 -1 -1 -0 0 0 1 1 1 -0 1 -1 -1 -1 -2 -1 1 -1 -1 -3 -1 -1 -1 -1 -3 -2 -1 0 0 2 -1 1 -0 -8 -6 5 7 3 2 4 1 2 2 2
1 0 0 -1 -2 -2 -1 -1 -2 -2 0 -0 -0 0 -0 -1 -1 -0 -1 -0 0 -1 -2 -0 -1 -3 -2 -0 0 -2 -1 -2 9 -9 -4 -2 4 2 5 6 4 4 2 2 2
-1 -1 -0 0 0 -0 0 0 1 1 1 1 1 1 1 0 1 0 -2 -1 -1 -1 -2 -1 -0 -2 -3 -2 -2 -1 -3 1 3 -8 -3 1 -4 3 5 4 2 3 4 5 3
1 -1 -1 -1 -1 -1 0 2 0 -0 1 1 1 1 0 -3 -2 -2 -0 -2 -2 -1 -1 -1 0 -2 -1 -3 -2 1 -3 4 5 0 4 4 -1 1 3 5 2 3 4 2 -0
-0 1 1 0 1 -0 1 2 1 2 1 0 -1 -2 -1 -2 -3 -3 -3 -1 -1 -3 -0 -0 -2 0 0 -1 -1 2 1 0 6 -2 0 5 -3 1 3 2 -0 2 2 2 3
0 2 1 0 1 0 1 2 2 0 -2 -2 -3 -0 -3 -5 -3 -3 -2 -1 -1 -2 -0 1 -0 1 0 -1 2 -1 0 -3 6 1 5 4 -2 2 2 1 1 3 3 3 -1
1 3 1 1 2 0 1 0 -0 -2 -2 -1 -2 -2 -3 -3 -1 -2 -0 -1 -2 -2 0 -0 -0 -0 -0 -0 0 -1 2 1 2 8 -2 2 -2 3 3 0 0 -1 -0 -0 -1
-0 4 -1 0 1 0 1 1 0 -3 -5 -1 0 0 -1 -0 -1 -1 -1 -1 -1 -2 -1 1 -1 -0 1 0 -1 0 -2 1 2 -1 4 1 2 5 2 1 -2 -2 -1 -2 -2
2 2 1 -1 2 2 2 0 0 -2 -3 -2 -1 -1 -1 -1 -1 -0 -1 -0 -2 -2 -0 2 2 -2 -1 -2 -2 -0 2 -0 0 2 0 1 0 6 3 -1 2 2 0 -2 -1
2 1 1 1 0 1 1 -0 -2 -3 -1 -1 -1 -2 -2 -2 -1 -1 0 -1 -1 -0 -1 0 -0 -1 -1 -2 -1 -0 2 -1 -2 -2 -5 0 0 3 -2 -1 0 -2 -2 -2 -3
0 3 1 -0 1 3 0 -1 -2 -0 0 -1 -2 -1 -1 -1 -1 -2 -2 -1 -0 -1 -1 0 0 1 -2 -0 -4 -4 -3 -2 -1 -1 -3 -0 1 -4 2 1 0 1 -0 2 1
0 3 0 2 2 4 -0 1 -1 -2 -2 -1 -1 -3 -2 -2 -3 -4 -2 -2 -2 -1 -2 -2 0 1 -0 -1 -0 0 -0 -0 -1 0 -0 1 0 2 0 2 -0 -4 -2 -1 -3
0 1 2 2 1 0 3 -1 -3 -1 -4 -1 -1 -4 -2 -1 -4 -3 -2 -1 -0 -1 -2 -2 -2 1 0 -0 0 0 2 -1 -2 -2 -1 -2 -0 -1 -0 1 0 -1 -1 -4 -4
-5 -3 2 5 6 2 3 4 -3 -2 -3 -4 -2 -2 -2 -1 -3 -2 -2 -1 -2 -3 -3 -2 -2 0 -0 -0 1 2 -0 -1 -1 -0 -2 -1 -4 -0 -1 -1 -4 -5 -6 -4 -4
1 -5 5 -3 -1 6 2 -3 -0 4 -5 -4 -3 1 -1 0 -2 -1 -0 -1 -1 -2 -0 -2 -2 -2 -2 -2 -0 -1 -2 -2 -2 -0 0 0 -8 -0 2 0 1 -2 2 -1 3
0 3 -1 -1 -2 -1 3 -2 0 3 -1 -3 -1 -0 -0 -1 -1 -1 -1 -1 -1 -2 -0 -2 0 -1 -1 -0 -2 -0 -0 -0 -2 -0 -4 -0 -6 1 3 -1 1 1 3 3 1
8 2 -13 -2 -2 1 -0 -1 1 1 -1 -2 -1 -1 -0 -2 -2 0 -1 -0 1 -0 -2 -1 -1 -1 -4 -1 0 0 -2 2 3 1 -2 -11 -3 5 1 2 -1 -2 2 -2 -12
2 -5 -7 -6 -2 1 0 5 1 -3 -2 -1 -2 -1 -0 -2 1 -3 0 0 -0 0 0 -2 -3 0 1 1 -0 -1 -1 4 2 4 -1 -1 -2 -0 -3 -1 -4 -3 0 -3 -0
-0 -5 -0 2 -4 1 1 1 1 -3 -3 -1 0 0 1 -3 2 -2 3 0 2 1 1 -1 -4 -2 -5 -0 1 -5 -2 2 5 0 -3 2 2 2 0 0 -3 -4 -5 -1 -4
-1 3 -3 1 2 1 1 1 2 4 3 -0 1 -1 -1 -1 -1 0 -1 1 -1 -0 1 -2 0 -1 -5 -5 -1 -7 -2 2 2 1 3 -1 2 0 2 -5 -5 -1 -6 -7 -7
Height
3157 3159 3162 3164 3165 3166 3168 3169 3170 3171 3172 3173 3174 3174 3174 3175 3175 3176 3176 3176 3177 3177 3177 3176 3176 3176 3176 3177 3177 3178 3179 3179 3179 3179 3178 3177 3176 3177 3176 3174 3170 3171 3172 3173 3172
3156 3158 3161 3164 3166 3167 3168 3170 3171 3172 3173 3174 3175 3176 3176 3176 3176 3176 3178 3177 3177 3177 3178 3177 3177 3177 3177 3177 3178 3178 3179 3180 3180 3179 3177 3177 3176 3173 3173 3171 3170 3171 3171 3170 3170
3155 3158 3160 3162 3165 3167 3169 3170 3171 3172 3173 3174 3175 3176 3176 3176 3178 3178 3178 3178 3178 3177 3178 3178 3177 3178 3177 3177 3177 3178 3179 3179 3178 3177 3175 3175 3174 3168 3169 3169 3169 3169 3169 3168 3167
3153 3157 3160 3162 3164 3166 3168 3170 3171 3172 3173 3174 3174 3176 3176 3178 3180 3179 3179 3179 3178 3177 3177 3177 3177 3177 3176 3176 3177 3178 3178 3177 3176 3176 3173 3174 3170 3168 3168 3169 3169 3169 3168 3166 3166
3152 3155 3158 3161 3163 3165 3167 3169 3170 3171 3172 3174 3174 3175 3177 3178 3178 3179 3179 3178 3178 3177 3175 3175 3176 3175 3174 3175 3176 3176 3176 3175 3175 3176 3173 3173 3170 3167 3167 3168 3168 3168 3167 3166 3165
3150 3153 3157 3160 3162 3164 3166 3168 3169 3170 3172 3173 3174 3175 3177 3178 3178 3178 3178 3177 3177 3175 3173 3172 3172 3172 3172 3172 3174 3174 3174 3174 3175 3175 3175 3174 3170 3170 3168 3167 3166 3166 3166 3165 3162
3147 3151 3155 3158 3161 3163 3165 3167 3168 3169 3171 3173 3174 3175 3176 3178 3176 3176 3176 3175 3173 3173 3171 3170 3169 3170 3170 3171 3172 3173 3173 3173 3173 3172 3171 3171 3169 3166 3167 3166 3165 3164 3163 3161 3160
3144 3148 3153 3157 3159 3162 3164 3166 3168 3169 3171 3172 3173 3174 3175 3175 3174 3174 3174 3173 3170 3170 3170 3169 3169 3170 3170 3171 3172 3173 3174 3173 3172 3167 3167 3169 3170 3167 3165 3164 3164 3162 3161 3160 3159
3141 3145 3150 3153 3157 3160 3162 3165 3167 3168 3170 3171 3173 3173 3173 3173 3172 3171 3172 3172 3171 3169 3168 3169 3169 3170 3171 3171 3172 3173 3173 3172 3170 3165 3166 3166 3166 3165 3165 3165 3162 3161 3160 3158 3156
3138 3142 3147 3151 3155 3158 3161 3163 3165 3167 3169 3170 3171 3173 3172 3172 3171 3170 3169 3168 3168 3167 3168 3169 3170 3170 3171 3171 3172 3172 3172 3172 3169 3168 3164 3163 3163 3165 3165 3163 3161 3161 3159 3157 3155
3135 3140 3144 3148 3152 3155 3159 3162 3166 3168 3167 3168 3169 3169 3170 3170 3169 3167 3167 3166 3166 3167 3168 3169 3170 3171 3171 3171 3172 3172 3171 3171 3170 3168 3166 3164 3164 3166 3165 3164 3163 3162 3159 3157 3155
3133 3138 3143 3146 3150 3153 3156 3159 3162 3165 3165 3166 3167 3168 3168 3167 3167 3165 3165 3166 3165 3166 3167 3169 3169 3171 3171 3171 3171 3171 3170 3171 3170 3169 3168 3169 3166 3167 3166 3165 3164 3161 3159 3158 3156
3130 3136 3140 3143 3147 3150 3154 3157 3159 3161 3164 3165 3166 3166 3167 3168 3166 3166 3165 3164 3165 3166 3167 3168 3170 3170 3171 3171 3171 3170 3169 3169 3171 3169 3170 3169 3168 3167 3166 3165 3162 3160 3158 3155 3152
3127 3133 3137 3141 3147 3147 3151 3155 3157 3160 3163 3166 3165 3165 3166 3166 3167 3166 3165 3167 3166 3167 3167 3168 3169 3170 3170 3169 3170 3169 3169 3168 3168 3169 3168 3167 3167 3166 3165 3163 3159 3157 3155 3153 3151
3124 3130 3134 3139 3142 3146 3151 3153 3156 3160 3162 3166 3165 3165 3165 3167 3167 3167 3166 3165 3166 3167 3168 3168 3167 3168 3169 3168 3168 3169 3167 3166 3164 3165 3165 3165 3165 3162 3162 3159 3156 3155 3153 3150 3147
3121 3127 3132 3136 3140 3145 3148 3151 3155 3160 3160 3163 3164 3164 3166 3166 3166 3166 3165 3166 3165 3165 3166 3166 3166 3167 3167 3167 3167 3166 3165 3163 3162 3162 3164 3162 3163 3163 3161 3155 3155 3153 3150 3148 3144
3118 3124 3129 3133 3138 3142 3146 3150 3155 3155 3161 3162 3162 3163 3165 3166 3165 3165 3165 3164 3165 3165 3165 3165 3165 3165 3166 3167 3166 3165 3163 3162 3163 3163 3163 3161 3161 3159 3155 3153 3152 3150 3147 3144 3141
3116 3122 3126 3131 3135 3140 3143 3150 3152 3154 3156 3159 3161 3163 3164 3164 3164 3164 3164 3164 3164 3164 3164 3164 3164 3164 3164 3165 3166 3164 3164 3164 3164 3166 3162 3159 3157 3155 3153 3152 3151 3148 3145 3140 3136
3115 3119 3124 3128 3132 3137 3142 3145 3148 3151 3155 3157 3160 3162 3163 3164 3165 3165 3164 3164 3164 3164 3165 3164 3164 3163 3163 3163 3165 3163 3163 3164 3163 3163 3161 3157 3156 3154 3151 3150 3148 3145 3141 3137 3132
3113 3118 3122 3126 3130 3135 3139 3142 3145 3149 3152 3156 3158 3161 3162 3163 3164 3164 3165 3165 3164 3164 3164 3165 3164 3162 3162 3162 3162 3162 3163 3163 3163 3163 3162 3154 3152 3148 3148 3147 3146 3141 3138 3134 3127
3110 3115 3119 3124 3127 3131 3134 3137 3142 3146 3151 3155 3157 3158 3160 3162 3163 3164 3164 3164 3163 3163 3163 3163 3163 3163 3161 3161 3161 3161 3160 3161 3162 3161 3160 3158 3148 3146 3146 3144 3141 3138 3134 3127 3119
3107 3112 3116 3121 3127 3127 3131 3136 3141 3143 3147 3151 3155 3157 3158 3160 3160 3162 3161 3161 3161 3162 3162 3161 3160 3159 3160 3158 3158 3158 3158 3159 3159 3160 3158 3156 3146 3143 3143 3141 3137 3133 3129 3121 3113
3102 3107 3113 3119 3122 3125 3128 3132 3137 3141 3144 3148 3152 3153 3155 3157 3159 3158 3158 3159 3159 3160 3159 3159 3158 3157 3156 3158 3156 3156 3155 3155 3155 3155 3153 3154 3145 3142 3142 3140 3135 3131 3124 3118 3110
3101 3104 3110 3114 3118 3122 3126 3129 3134 3137 3141 3145 3148 3150 3151 3153 3155 3155 3155 3156 3156 3156 3156 3156 3155 3155 3155 3154 3154 3153 3153 3152 3152 3150 3147 3144 3143 3142 3140 3137 3131 3126 3120 3113 3105
3094 3097 3103 3107 3112 3119 3125 3127 3130 3133 3137 3141 3143 3146 3147 3150 3151 3151 3152 3152 3153 3153 3153 3154 3152 3151 3151 3150 3147 3147 3148 3148 3144 3143 3141 3139 3137 3137 3135 3130 3124 3121 3116 3109 3102
3089 3094 3100 3104 3109 3116 3119 3122 3125 3129 3134 3136 3139 3143 3144 3146 3147 3147 3148 3149 3151 3150 3150 3149 3150 3149 3147 3146 3144 3140 3142 3139 3137 3135 3134 3134 3133 3132 3131 3126 3123 3119 3112 3106 3099
3083 3090 3097 3101 3105 3110 3115 3118 3123 3126 3130 3132 3136 3138 3140 3141 3142 3144 3145 3146 3147 3147 3147 3147 3146 3145 3141 3141 3139 3136 3133 3131 3130 3131 3133 3131 3132 3129 3128 3123 3118 3114 3108 3102 3096